Location: Unspecified
(35.7250°N, 0.0000°E)
Time: 03:24:09
(UTC+00:00)

Vanguard 2 - Pass Details

Date: 25 June 2019
Orbit: 553 x 2938 km, 32.9° (Epoch: 19 July)

Event Time Altitude Azimuth Distance (km) Brightness Sun altitude
Rises 06:37:21 0° 231° (SW) 2,732 9.8 20.1°
Reaches altitude 10° 06:39:31 10° 221° (SW) 1,909 9.2 20.6°
Maximum altitude 06:43:21 34° 155° (SSE) 1,129 8.7 21.3°
Drops below altitude 10° 06:48:30 10° 92° (E) 2,582 11.9 22.3°
Sets 06:51:54 0° 84° (E) 3,882 12.6 23.0°
